Location: Newark
(43.6583°N, 1.6617°E)
Time: 00:08:51
(UTC+00:00)

Tiros 1 despin weight - Visible Passes

Search period start: 22 August 2019 00:00
Search period end: 01 September 2019 00:00
Orbit: 594 x 642 km, 48.2° (Epoch: 20 August)

Date Brightness Start Highest point End Pass type
(mag) Time Alt. Az. Time Alt. Az. Time Alt. Az.
22 Aug ? 02:04:59 47° N 02:05:07 47° N 02:09:33 10° ENE visible
22 Aug ? 03:42:37 10° WNW 03:47:08 62° NNE 03:51:43 10° E visible
23 Aug ? 00:43:54 13° ENE 00:43:54 13° ENE 00:44:26 10° ENE visible
23 Aug ? 02:20:58 40° NNW 02:21:56 47° N 02:26:22 10° ENE visible
23 Aug ? 03:59:15 10° WNW 04:03:50 86° NNE 04:08:28 10° ESE visible
24 Aug ? 01:00:00 17° ENE 01:00:00 17° ENE 01:01:08 10° ENE visible
24 Aug ? 02:37:05 34° NW 02:38:45 54° NNE 02:43:14 10° E visible
24 Aug ? 04:15:55 10° WNW 04:20:25 61° SSW 04:24:59 10° SE visible
25 Aug ? 01:16:18 20° ENE 01:16:18 20° ENE 01:17:55 10° ENE visible
25 Aug ? 02:53:24 31° WNW 02:55:30 70° NNE 03:00:05 10° ESE visible
25 Aug ? 04:32:43 10° WNW 04:36:54 36° SW 04:41:07 10° SSE visible
26 Aug ? 01:32:55 23° ENE 01:32:55 23° ENE 01:34:46 10° E visible
26 Aug ? 03:10:02 31° WNW 03:12:09 80° SSW 03:16:44 10° ESE visible
27 Aug ? 01:49:54 22° E 01:49:54 22° E 01:51:38 10° E visible
27 Aug ? 03:27:03 33° W 03:28:41 49° SSW 03:33:07 10° SE visible
28 Aug ? 02:07:19 17° ESE 02:07:19 17° ESE 02:08:24 10° ESE visible
28 Aug ? 03:44:30 27° SW 03:45:06 28° SW 03:49:01 10° SSE visible
28 Aug ? 19:31:32 10° S 19:34:04 15° SE 19:34:41 15° SE visible
28 Aug ? 21:10:37 10° SW 21:11:51 18° SW 21:11:51 18° SW visible
29 Aug ? 04:02:22 14° SSW 04:02:22 14° SSW 04:04:04 10° S visible
29 Aug ? 19:46:36 10° SSW 19:50:21 28° SE 19:51:56 22° ESE visible
29 Aug ? 21:27:11 10° WSW 21:29:03 25° WSW 21:29:03 25° WSW visible
30 Aug ? 20:02:30 10° SW 20:06:46 49° SSE 20:08:44 28° E visible
30 Aug ? 21:43:57 10° W 21:45:51 24° W 21:45:51 24° W visible
31 Aug ? 20:18:53 10° WSW 20:23:18 82° SSE 20:25:12 34° ENE visible
31 Aug ? 22:00:48 10° W 22:02:17 20° WNW 22:02:17 20° WNW visible
